Time,TemperatureF,DewpointF,PressureIn,WindDirection,WindDirectionDegrees,WindSpeedMPH,WindSpeedGustMPH,Humidity,HourlyPrecipIn,Conditions,Clouds,dailyrainin,SoftwareType,DateUTC
2013-03-31 00:02:00,67.0,57.0,29.91,ESE,118,2.0,2.0,70,0.00,,,-99.99,,2013-03-31 05:02:00,
2013-03-31 00:12:00,67.0,57.0,29.91,ESE,118,2.0,2.0,70,0.00,,,-99.99,,2013-03-31 05:12:00,
2013-03-31 00:22:00,67.0,57.0,29.91,ESE,118,2.0,2.0,70,0.00,,,-99.99,,2013-03-31 05:22:00,
2013-03-31 00:32:00,67.0,57.0,29.91,ESE,118,2.0,2.0,70,0.00,,,-99.99,,2013-03-31 05:32:00,
2013-03-31 00:42:00,67.0,57.0,29.91,ESE,118,2.0,2.0,70,0.00,,,-99.99,,2013-03-31 05:42:00,
2013-03-31 00:53:00,67.0,57.0,29.91,ESE,104,2.0,4.0,71,0.00,,,-99.99,,2013-03-31 05:53:00,
2013-03-31 01:02:00,67.0,57.0,29.91,ESE,104,2.0,4.0,71,0.00,,,-99.99,,2013-03-31 06:02:00,
2013-03-31 01:12:00,67.0,57.0,29.91,ESE,104,2.0,4.0,71,0.00,,,-99.99,,2013-03-31 06:12:00,
2013-03-31 01:22:00,66.0,57.0,29.91,SE,134,2.0,5.0,72,0.00,,,-99.99,,2013-03-31 06:22:00,
2013-03-31 01:32:00,66.0,57.0,29.91,SE,134,2.0,5.0,72,0.00,,,-99.99,,2013-03-31 06:32:00,
2013-03-31 01:42:00,66.0,57.0,29.91,SE,134,2.0,5.0,72,0.00,,,-99.99,,2013-03-31 06:42:00,
2013-03-31 01:52:00,65.0,57.0,29.91,SSE,163,3.0,4.0,75,0.00,,,-99.99,,2013-03-31 06:52:00,
2013-03-31 02:02:00,65.0,57.0,29.91,SSE,163,3.0,4.0,75,0.00,,,-99.99,,2013-03-31 07:02:00,
2013-03-31 02:12:00,65.0,57.0,29.91,SSE,163,3.0,4.0,75,0.00,,,-99.99,,2013-03-31 07:12:00,
2013-03-31 02:22:00,65.0,57.0,29.91,SSE,163,3.0,4.0,75,0.00,,,-99.99,,2013-03-31 07:22:00,
2013-03-31 02:32:00,65.0,57.0,29.91,SSE,163,3.0,4.0,75,0.00,,,-99.99,,2013-03-31 07:32:00,
2013-03-31 02:53:00,64.0,58.0,29.90,South,191,5.0,6.0,80,0.00,,,-99.99,,2013-03-31 07:53:00,
2013-03-31 03:02:00,64.0,58.0,29.90,South,191,5.0,6.0,80,0.00,,,-99.99,,2013-03-31 08:02:00,
2013-03-31 03:12:00,64.0,58.0,29.90,South,191,5.0,6.0,80,0.00,,,-99.99,,2013-03-31 08:12:00,
2013-03-31 03:22:00,64.0,58.0,29.90,South,191,5.0,6.0,80,0.00,,,-99.99,,2013-03-31 08:22:00,
2013-03-31 03:32:00,64.0,59.0,29.89,South,172,2.0,6.0,84,0.00,,,-99.99,,2013-03-31 08:32:00,
2013-03-31 03:42:00,64.0,59.0,29.89,South,172,2.0,6.0,84,0.00,,,-99.99,,2013-03-31 08:42:00,
2013-03-31 03:52:00,64.0,60.0,29.89,SW,214,2.0,4.0,86,0.00,,,-99.99,,2013-03-31 08:52:00,
2013-03-31 04:02:00,63.0,59.0,29.88,South,169,0.0,2.0,87,0.00,,,-99.99,,2013-03-31 09:02:00,
2013-03-31 04:12:00,63.0,59.0,29.88,South,169,0.0,2.0,87,0.00,,,-99.99,,2013-03-31 09:12:00,
2013-03-31 04:22:00,63.0,60.0,29.88,SSE,162,2.0,2.0,89,0.00,,,-99.99,,2013-03-31 09:22:00,
2013-03-31 04:33:00,62.0,59.0,29.88,SSE,165,1.0,2.0,90,0.00,,,-99.99,,2013-03-31 09:33:00,
2013-03-31 04:42:00,62.0,59.0,29.88,SSE,165,1.0,2.0,90,0.00,,,-99.99,,2013-03-31 09:42:00,
2013-03-31 04:53:00,62.0,59.0,29.88,South,189,1.0,3.0,91,0.00,,,-99.99,,2013-03-31 09:53:00,
2013-03-31 05:03:00,62.0,59.0,29.88,SW,222,0.0,3.0,91,0.00,,,-99.99,,2013-03-31 10:03:00,
2013-03-31 05:13:00,62.0,59.0,29.88,SW,222,0.0,3.0,91,0.00,,,-99.99,,2013-03-31 10:13:00,
2013-03-31 05:23:00,62.0,60.0,29.88,SW,231,0.0,2.0,92,0.00,,,-99.99,,2013-03-31 10:23:00,
2013-03-31 05:32:00,62.0,59.0,29.88,SW,214,3.0,4.0,91,0.00,,,-99.99,,2013-03-31 10:32:00,
2013-03-31 05:42:00,62.0,59.0,29.88,SW,214,3.0,4.0,91,0.00,,,-99.99,,2013-03-31 10:42:00,
2013-03-31 05:53:00,62.0,60.0,29.88,SW,218,3.0,4.0,92,0.00,,,-99.99,,2013-03-31 10:53:00,
2013-03-31 06:02:00,63.0,61.0,29.87,SW,219,3.0,5.0,92,0.00,,,-99.99,,2013-03-31 11:02:00,
2013-03-31 06:12:00,63.0,61.0,29.87,SW,219,3.0,5.0,92,0.00,,,-99.99,,2013-03-31 11:12:00,
2013-03-31 06:23:00,63.0,61.0,29.87,SW,215,1.0,5.0,92,0.00,,,-99.99,,2013-03-31 11:23:00,
2013-03-31 06:32:00,63.0,60.0,29.88,SW,217,3.0,6.0,91,0.00,,,-99.99,,2013-03-31 11:32:00,
2013-03-31 06:42:00,63.0,60.0,29.88,SW,217,3.0,6.0,91,0.00,,,-99.99,,2013-03-31 11:42:00,
2013-03-31 06:52:00,63.0,60.0,29.89,SW,232,2.0,4.0,91,0.00,,,-99.99,,2013-03-31 11:52:00,
2013-03-31 07:02:00,64.0,61.0,29.90,WSW,252,1.0,4.0,91,0.00,,,-99.99,,2013-03-31 12:02:00,
2013-03-31 07:12:00,64.0,61.0,29.90,WSW,252,1.0,4.0,91,0.00,,,-99.99,,2013-03-31 12:12:00,
2013-03-31 07:22:00,64.0,61.0,29.90,WSW,252,1.0,4.0,91,0.00,,,-99.99,,2013-03-31 12:22:00,
2013-03-31 07:33:00,63.0,60.0,29.91,WNW,288,0.0,3.0,91,0.00,,,-99.99,,2013-03-31 12:33:00,
2013-03-31 07:42:00,63.0,60.0,29.91,WNW,288,0.0,3.0,91,0.00,,,-99.99,,2013-03-31 12:42:00,
2013-03-31 07:52:00,64.0,61.0,29.91,NNW,337,0.0,0.0,91,0.00,,,-99.99,,2013-03-31 12:52:00,
2013-03-31 08:02:00,63.0,61.0,29.91,NNW,337,0.0,0.0,92,0.00,,,-99.99,,2013-03-31 13:02:00,
2013-03-31 08:12:00,63.0,61.0,29.91,NNW,337,0.0,0.0,92,0.00,,,-99.99,,2013-03-31 13:12:00,
2013-03-31 08:22:00,64.0,61.0,29.92,NNW,337,0.0,0.0,91,0.00,,,-99.99,,2013-03-31 13:22:00,
2013-03-31 08:32:00,64.0,61.0,29.92,NNW,337,0.0,0.0,91,0.00,,,-99.99,,2013-03-31 13:32:00,
2013-03-31 08:42:00,64.0,61.0,29.92,NNW,337,0.0,0.0,91,0.00,,,-99.99,,2013-03-31 13:42:00,
2013-03-31 08:52:00,64.0,61.0,29.93,NNW,340,0.0,0.0,91,0.00,,,-99.99,,2013-03-31 13:52:00,
2013-03-31 09:02:00,65.0,62.0,29.93,WNW,284,1.0,2.0,89,0.00,,,-99.99,,2013-03-31 14:02:00,
2013-03-31 09:12:00,65.0,62.0,29.93,WNW,284,1.0,2.0,89,0.00,,,-99.99,,2013-03-31 14:12:00,
2013-03-31 09:22:00,66.0,62.0,29.93,WSW,241,1.0,2.0,87,0.00,,,-99.99,,2013-03-31 14:22:00,
2013-03-31 09:32:00,68.0,63.0,29.93,SW,224,2.0,4.0,83,0.00,,,-99.99,,2013-03-31 14:32:00,
2013-03-31 09:42:00,68.0,63.0,29.93,SW,224,2.0,4.0,83,0.00,,,-99.99,,2013-03-31 14:42:00,
2013-03-31 09:52:00,69.0,63.0,29.93,SW,235,1.0,5.0,80,0.00,,,-99.99,,2013-03-31 14:52:00,
2013-03-31 10:02:00,70.0,63.0,29.93,SSW,204,4.0,5.0,79,0.00,,,-99.99,,2013-03-31 15:02:00,
2013-03-31 10:12:00,70.0,63.0,29.93,SSW,204,4.0,5.0,79,0.00,,,-99.99,,2013-03-31 15:12:00,
2013-03-31 10:22:00,70.0,63.0,29.93,SSW,204,4.0,5.0,79,0.00,,,-99.99,,2013-03-31 15:22:00,
2013-03-31 10:33:00,70.0,63.0,29.94,SW,235,5.0,8.0,78,0.00,,,-99.99,,2013-03-31 15:33:00,
2013-03-31 10:43:00,70.0,63.0,29.94,SW,235,5.0,8.0,78,0.00,,,-99.99,,2013-03-31 15:43:00,
2013-03-31 10:54:00,70.0,63.0,29.94,SW,235,5.0,8.0,78,0.00,,,-99.99,,2013-03-31 15:54:00,
2013-03-31 11:03:00,68.0,63.0,29.93,SSW,212,3.0,10.0,83,0.00,,,-99.99,,2013-03-31 16:03:00,
2013-03-31 11:13:00,68.0,63.0,29.93,SSW,212,3.0,10.0,83,0.00,,,-99.99,,2013-03-31 16:13:00,
2013-03-31 11:23:00,68.0,63.0,29.93,SSW,212,8.0,10.0,84,0.00,,,-99.99,,2013-03-31 16:23:00,
2013-03-31 11:33:00,68.0,63.0,29.93,SSW,212,8.0,10.0,84,0.00,,,-99.99,,2013-03-31 16:33:00,
2013-03-31 11:42:00,68.0,63.0,29.93,SSW,212,8.0,10.0,84,0.00,,,-99.99,,2013-03-31 16:42:00,
2013-03-31 11:53:00,68.0,63.0,29.93,SSW,212,8.0,10.0,84,0.00,,,-99.99,,2013-03-31 16:53:00,
2013-03-31 12:02:00,68.0,63.0,29.93,SSW,212,8.0,10.0,84,0.00,,,-99.99,,2013-03-31 17:02:00,
2013-03-31 12:23:00,72.0,64.0,29.97,WNW,282,2.0,8.0,75,0.00,,,-99.99,,2013-03-31 17:23:00,
2013-03-31 12:32:00,73.0,62.0,29.97,WNW,300,5.0,6.0,69,0.00,,,-99.99,,2013-03-31 17:32:00,
2013-03-31 12:43:00,73.0,62.0,29.97,WNW,300,5.0,6.0,69,0.00,,,-99.99,,2013-03-31 17:43:00,
2013-03-31 12:52:00,72.0,62.0,29.98,NNW,334,2.0,6.0,72,0.00,,,-99.99,,2013-03-31 17:52:00,
2013-03-31 13:02:00,73.0,64.0,29.96,East,100,4.0,5.0,73,0.00,,,-99.99,,2013-03-31 18:02:00,
2013-03-31 13:12:00,73.0,64.0,29.96,East,100,4.0,5.0,73,0.00,,,-99.99,,2013-03-31 18:12:00,
2013-03-31 13:22:00,74.0,64.0,29.95,NNW,341,7.0,9.0,70,0.00,,,-99.99,,2013-03-31 18:22:00,
2013-03-31 13:32:00,71.0,65.0,29.93,North,350,14.0,16.0,80,0.00,,,-99.99,,2013-03-31 18:32:00,
2013-03-31 13:42:00,71.0,65.0,29.93,North,350,14.0,16.0,80,0.00,,,-99.99,,2013-03-31 18:42:00,
2013-03-31 13:52:00,69.0,64.0,29.93,NNE,13,2.0,12.0,83,0.08,,,-99.99,,2013-03-31 18:52:00,
2013-03-31 14:03:00,69.0,65.0,29.94,WNW,293,0.0,5.0,87,0.05,,,-99.99,,2013-03-31 19:03:00,
2013-03-31 14:12:00,69.0,65.0,29.94,WNW,293,0.0,5.0,87,0.05,,,-99.99,,2013-03-31 19:12:00,
2013-03-31 14:22:00,69.0,65.0,29.94,WNW,293,0.0,5.0,87,0.05,,,-99.99,,2013-03-31 19:22:00,
2013-03-31 14:32:00,69.0,65.0,29.94,SE,125,3.0,5.0,87,0.00,,,-99.99,,2013-03-31 19:32:00,
2013-03-31 14:42:00,69.0,65.0,29.94,SE,125,3.0,5.0,87,0.00,,,-99.99,,2013-03-31 19:42:00,
2013-03-31 14:54:00,69.0,65.0,29.92,SE,130,4.0,6.0,87,0.00,,,-99.99,,2013-03-31 19:54:00,
2013-03-31 15:02:00,69.0,65.0,29.92,SW,215,5.0,11.0,86,0.06,,,-99.99,,2013-03-31 20:02:00,
2013-03-31 15:12:00,69.0,65.0,29.92,SW,215,5.0,11.0,86,0.06,,,-99.99,,2013-03-31 20:12:00,
2013-03-31 15:22:00,69.0,65.0,29.90,NE,46,3.0,10.0,86,0.00,,,-99.99,,2013-03-31 20:22:00,
2013-03-31 15:33:00,71.0,67.0,29.88,ESE,108,5.0,7.0,87,0.00,,,-99.99,,2013-03-31 20:33:00,
2013-03-31 15:43:00,71.0,67.0,29.88,ESE,108,5.0,7.0,87,0.00,,,-99.99,,2013-03-31 20:43:00,
2013-03-31 15:53:00,72.0,66.0,29.88,ENE,66,7.0,11.0,81,0.00,,,-99.99,,2013-03-31 20:53:00,
2013-03-31 16:02:00,73.0,65.0,29.88,ENE,66,5.0,10.0,75,0.00,,,-99.99,,2013-03-31 21:02:00,
2013-03-31 16:12:00,73.0,65.0,29.88,ENE,66,5.0,10.0,75,0.00,,,-99.99,,2013-03-31 21:12:00,
2013-03-31 16:22:00,74.0,65.0,29.89,SE,143,9.0,10.0,73,0.00,,,-99.99,,2013-03-31 21:22:00,
2013-03-31 16:33:00,74.0,65.0,29.89,SE,143,9.0,10.0,73,0.00,,,-99.99,,2013-03-31 21:33:00,
2013-03-31 16:43:00,74.0,65.0,29.89,SE,143,9.0,10.0,73,0.00,,,-99.99,,2013-03-31 21:43:00,
2013-03-31 16:53:00,73.0,65.0,29.88,ESE,103,9.0,12.0,76,0.00,,,-99.99,,2013-03-31 21:53:00,
2013-03-31 17:03:00,73.0,65.0,29.88,ESE,103,9.0,12.0,76,0.00,,,-99.99,,2013-03-31 22:03:00,
2013-03-31 17:13:00,73.0,65.0,29.88,ESE,103,9.0,12.0,76,0.00,,,-99.99,,2013-03-31 22:13:00,
2013-03-31 17:23:00,73.0,65.0,29.88,ESE,103,9.0,12.0,76,0.00,,,-99.99,,2013-03-31 22:23:00,
2013-03-31 17:33:00,74.0,62.0,29.87,East,101,8.0,13.0,66,0.00,,,-99.99,,2013-03-31 22:33:00,
2013-03-31 17:43:00,74.0,62.0,29.87,East,101,8.0,13.0,66,0.00,,,-99.99,,2013-03-31 22:43:00,
2013-03-31 17:53:00,75.0,62.0,29.87,East,97,9.0,13.0,65,0.00,,,-99.99,,2013-03-31 22:53:00,
2013-03-31 18:03:00,75.0,63.0,29.87,ESE,115,8.0,11.0,66,0.00,,,-99.99,,2013-03-31 23:03:00,
2013-03-31 18:13:00,75.0,63.0,29.87,ESE,115,8.0,11.0,66,0.00,,,-99.99,,2013-03-31 23:13:00,
2013-03-31 18:22:00,75.0,61.0,29.87,East,98,5.0,11.0,61,0.00,,,-99.99,,2013-03-31 23:22:00,
2013-03-31 18:32:00,76.0,61.0,29.87,SE,126,8.0,12.0,60,0.00,,,-99.99,,2013-03-31 23:32:00,
2013-03-31 18:42:00,76.0,61.0,29.87,SE,126,8.0,12.0,60,0.00,,,-99.99,,2013-03-31 23:42:00,
2013-03-31 18:53:00,76.0,61.0,29.87,SE,131,4.0,10.0,60,0.00,,,-99.99,,2013-03-31 23:53:00,
2013-03-31 19:02:00,76.0,61.0,29.87,ESE,123,6.0,10.0,59,0.00,,,-99.99,,2013-04-01 00:02:00,
2013-03-31 19:12:00,76.0,61.0,29.87,ESE,123,6.0,10.0,59,0.00,,,-99.99,,2013-04-01 00:12:00,
2013-03-31 19:22:00,75.0,59.0,29.87,SE,126,6.0,10.0,58,0.00,,,-99.99,,2013-04-01 00:22:00,
2013-03-31 19:32:00,75.0,60.0,29.88,East,96,6.0,9.0,59,0.00,,,-99.99,,2013-04-01 00:32:00,
2013-03-31 19:42:00,75.0,60.0,29.88,East,96,6.0,9.0,59,0.00,,,-99.99,,2013-04-01 00:42:00,
2013-03-31 19:52:00,74.0,61.0,29.88,SE,130,5.0,8.0,63,0.00,,,-99.99,,2013-04-01 00:52:00,
2013-03-31 20:03:00,73.0,61.0,29.88,ESE,116,3.0,6.0,65,0.00,,,-99.99,,2013-04-01 01:03:00,
2013-03-31 20:12:00,73.0,61.0,29.88,ESE,116,3.0,6.0,65,0.00,,,-99.99,,2013-04-01 01:12:00,
2013-03-31 20:22:00,72.0,60.0,29.89,SE,146,2.0,4.0,67,0.00,,,-99.99,,2013-04-01 01:22:00,
2013-03-31 20:32:00,71.0,59.0,29.89,SE,125,2.0,4.0,67,0.00,,,-99.99,,2013-04-01 01:32:00,
2013-03-31 20:42:00,71.0,59.0,29.89,SE,125,2.0,4.0,67,0.00,,,-99.99,,2013-04-01 01:42:00,
2013-03-31 20:53:00,70.0,59.0,29.90,East,101,2.0,3.0,68,0.00,,,-99.99,,2013-04-01 01:53:00,
2013-03-31 21:02:00,70.0,60.0,29.90,ESE,123,1.0,2.0,70,0.00,,,-99.99,,2013-04-01 02:02:00,
2013-03-31 21:12:00,70.0,60.0,29.90,ESE,123,1.0,2.0,70,0.00,,,-99.99,,2013-04-01 02:12:00,
2013-03-31 21:22:00,70.0,61.0,29.91,East,86,2.0,2.0,72,0.00,,,-99.99,,2013-04-01 02:22:00,
2013-03-31 21:32:00,69.0,60.0,29.91,East,86,1.0,3.0,74,0.00,,,-99.99,,2013-04-01 02:32:00,
2013-03-31 21:42:00,69.0,60.0,29.91,East,86,1.0,3.0,74,0.00,,,-99.99,,2013-04-01 02:42:00,
2013-03-31 21:53:00,68.0,60.0,29.92,NE,51,0.0,3.0,76,0.00,,,-99.99,,2013-04-01 02:53:00,
2013-03-31 22:02:00,68.0,60.0,29.92,NE,51,0.0,3.0,76,0.00,,,-99.99,,2013-04-01 03:02:00,
2013-03-31 22:12:00,68.0,60.0,29.92,NE,51,0.0,3.0,76,0.00,,,-99.99,,2013-04-01 03:12:00,
2013-03-31 22:22:00,67.0,61.0,29.93,NE,56,2.0,3.0,80,0.00,,,-99.99,,2013-04-01 03:22:00,
2013-03-31 22:33:00,67.0,61.0,29.94,ENE,68,2.0,3.0,81,0.00,,,-99.99,,2013-04-01 03:33:00,
2013-03-31 22:43:00,67.0,61.0,29.94,ENE,68,2.0,3.0,81,0.00,,,-99.99,,2013-04-01 03:43:00,
2013-03-31 22:53:00,67.0,62.0,29.95,NE,53,2.0,3.0,83,0.00,,,-99.99,,2013-04-01 03:53:00,
2013-03-31 23:03:00,66.0,61.0,29.96,NNE,25,3.0,3.0,84,0.00,,,-99.99,,2013-04-01 04:03:00,
2013-03-31 23:13:00,66.0,61.0,29.96,NNE,25,3.0,3.0,84,0.00,,,-99.99,,2013-04-01 04:13:00,
2013-03-31 23:23:00,66.0,60.0,29.97,NE,47,5.0,6.0,82,0.00,,,-99.99,,2013-04-01 04:23:00,
2013-03-31 23:33:00,67.0,58.0,29.98,East,79,6.0,10.0,73,0.00,,,-99.99,,2013-04-01 04:33:00,
2013-03-31 23:43:00,67.0,58.0,29.98,East,79,6.0,10.0,73,0.00,,,-99.99,,2013-04-01 04:43:00,
2013-03-31 23:52:00,67.0,58.0,29.98,East,79,6.0,10.0,73,0.00,,,-99.99,,2013-04-01 04:52:00,